Weather reports worldwide

Advertisment
Linton-On-Ouse, United Kingdom (3266): temperature & dewpoint: 16.07.2019 01:00:00 - 22.07.2019 01:00:00 (BST)Linton-On-Ouse, United Kingdom (3266): temperature -20cm & temperature -100cm: 16.07.2019 01:00:00 - 22.07.2019 01:00:00 (BST)Linton-On-Ouse, United Kingdom (3266): wind speed & gusts: 16.07.2019 01:00:00 - 22.07.2019 01:00:00 (BST)Linton-On-Ouse, United Kingdom (3266): wind direction: 16.07.2019 01:00:00 - 22.07.2019 01:00:00 (BST)Linton-On-Ouse, United Kingdom (3266): reduced air pressure: 16.07.2019 01:00:00 - 22.07.2019 01:00:00 (BST)Linton-On-Ouse, United Kingdom (3266): visibility: 16.07.2019 01:00:00 - 22.07.2019 01:00:00 (BST)Linton-On-Ouse, United Kingdom (3266): precipitation: 16.07.2019 01:00:00 - 22.07.2019 01:00:00 (BST)
Date & Time tt [°C] td [°C] tt -20cm [°C] tt -100cm [°C] ff [km/h] ff [kn] fx [km/h] fx [kn] dd ppp [hPa] vv [km] rr [mm]
22.07.2019 01:00:00 - - - - - - - - - - - -
22.07.2019 00:00:00 16,6 14,7 - - 21 11 - - S 1015,1 6 0,6
21.07.2019 23:00:00 18,0 14,1 - - 18 10 - - S 1015,4 10 0,0
21.07.2019 22:00:00 18,9 13,5 - - 16 9 - - SSE 1016,0 10 0,0
21.07.2019 21:00:00 19,0 13,6 - - 9 5 - - SSE 1016,4 10 0,0
21.07.2019 20:00:00 20,1 13,1 - - 18 10 - - SSW 1016,7 10 0,0
21.07.2019 19:00:00 20,6 12,7 - - 18 10 - - SSW 1016,9 30 0,0
21.07.2019 18:00:00 21,0 12,0 - - 21 11 - - SSW 1017,0 10 0,0
21.07.2019 17:00:00 20,9 12,1 - - 18 10 - - SW 1017,3 30 0,0
21.07.2019 16:00:00 21,1 11,8 - - 24 13 - - SW 1017,6 10 0,0
21.07.2019 15:00:00 21,1 12,5 - - 18 10 - - SSW 1017,6 10 0,0
21.07.2019 14:00:00 21,4 12,4 - - 16 9 - - WSW 1017,5 10 0,0
21.07.2019 13:00:00 22,1 12,8 - - 21 11 - - SW 1017,4 10 0,0
21.07.2019 12:00:00 20,4 13,0 - - 16 9 - - SSW 1017,7 10 0,0
21.07.2019 11:00:00 19,3 12,3 - - 21 11 - - SSW 1017,5 10 0,0
21.07.2019 10:00:00 18,8 12,8 16,0 15,0 15 8 - - SW 1017,4 28 0,0
21.07.2019 09:00:00 16,5 13,3 - - 13 7 - - SSW 1016,9 10 0,0
21.07.2019 08:00:00 14,6 13,0 - - 5 3 - - S 1016,5 21 0,0
21.07.2019 07:00:00 12,7 11,8 - - 5 3 - - ESE 1016,0 10 0,0
21.07.2019 06:00:00 11,0 10,6 - - 4 2 - - SSW 1015,8 10 0,0
21.07.2019 05:00:00 9,2 8,0 - - 2 1 - - E 1015,2 25 0,0
21.07.2019 04:00:00 10,6 9,4 - - 8 4 - - E 1014,6 23 0,0
21.07.2019 03:00:00 12,1 10,5 - - 5 3 - - S 1014,3 27 0,0
21.07.2019 02:00:00 12,5 10,2 - - 11 6 - - WSW 1014,1 10 0,0
21.07.2019 01:00:00 12,9 9,8 - - 9 5 - - WSW 1013,7 10 0,0
21.07.2019 00:00:00 13,6 9,9 - - 15 8 - - WSW 1013,0 35 0,0
20.07.2019 23:00:00 14,3 9,7 - - 15 8 - - W 1012,3 35 0,0
20.07.2019 22:00:00 15,6 9,6 - - 16 9 - - W 1011,3 10 0,0
20.07.2019 21:00:00 16,8 9,6 - - 16 9 - - W 1010,3 10 0,0
20.07.2019 20:00:00 18,5 9,9 - - 24 13 - - W 1008,8 10 0,0
20.07.2019 19:00:00 19,4 10,3 - - 26 14 48 26 W 1007,9 40 0,0
20.07.2019 18:00:00 19,9 12,0 - - 29 16 50 27 W 1006,9 35 0,0
20.07.2019 17:00:00 19,2 12,4 - - 29 16 55 30 W 1005,9 30 0,0
20.07.2019 16:00:00 20,3 13,5 - - 35 19 54 29 W 1004,8 30 0,0
20.07.2019 15:00:00 20,9 14,6 - - 34 18 55 30 W 1003,4 10 0,0
20.07.2019 14:00:00 19,1 14,4 - - 26 14 46 25 W 1002,8 26 0,0
20.07.2019 13:00:00 19,1 14,3 - - 26 14 - - WSW 1001,9 27 0,0
20.07.2019 12:00:00 19,6 14,6 - - 22 12 - - SW 1001,3 28 0,0
20.07.2019 11:00:00 18,8 13,8 - - 26 14 - - SW 1000,9 28 0,0
20.07.2019 10:00:00 19,3 15,1 16,0 15,0 22 12 - - SSW 1000,4 10 0,0
20.07.2019 09:00:00 18,1 16,7 - - 18 10 - - S 1000,8 10 0,0
20.07.2019 08:00:00 16,6 15,9 - - 13 7 - - SSE 1000,9 12 0,8
20.07.2019 07:00:00 16,4 15,2 - - 13 7 - - SSE 1001,2 10 0,0
20.07.2019 06:00:00 15,2 14,6 - - 13 7 - - S 1001,4 14 0,0
20.07.2019 05:00:00 15,1 14,1 - - 11 6 - - SSE 1001,7 10 0,0
20.07.2019 04:00:00 15,3 14,4 - - 16 9 - - S 1002,1 10 0,0
20.07.2019 03:00:00 15,6 14,5 - - 15 8 - - SSE 1002,5 14 0,0
20.07.2019 02:00:00 16,3 14,9 - - 15 8 - - SSE 1002,9 19 0,0
20.07.2019 01:00:00 16,8 15,5 - - 16 9 - - S 1003,1 17 0,0
20.07.2019 00:00:00 16,9 15,4 - - 9 5 - - S 1003,4 10 0,0
19.07.2019 23:00:00 17,4 16,2 - - 13 7 - - S 1003,9 10 0,0
19.07.2019 22:00:00 17,7 16,3 - - 16 9 - - S 1003,9 17 0,0
19.07.2019 21:00:00 17,9 17,0 - - 16 9 - - S 1003,7 14 0,0
19.07.2019 20:00:00 17,7 17,0 - - 16 9 - - S 1003,6 10 0,4
19.07.2019 19:00:00 17,2 16,5 - - 18 10 - - S 1004,2 4,9 0,4
19.07.2019 18:00:00 16,7 15,8 - - 18 10 - - SSE 1004,6 4,3 0,4
19.07.2019 17:00:00 16,9 15,2 - - 22 12 - - S 1005,5 16 0,0
19.07.2019 16:00:00 16,1 14,5 - - 22 12 - - SSE 1006,2 10 0,0
19.07.2019 15:00:00 17,0 14,7 - - 29 16 - - SSE 1006,8 10 0,0
19.07.2019 14:00:00 16,3 13,7 - - 24 13 - - SSE 1007,4 10 0,2
19.07.2019 13:00:00 15,4 14,0 - - 15 8 - - SSE 1008,1 10 1,4
19.07.2019 12:00:00 15,3 13,0 - - 15 8 - - S 1008,8 10 0,8
19.07.2019 11:00:00 16,4 13,7 - - 16 9 - - S 1008,7 10 0,0
19.07.2019 10:00:00 15,1 13,2 16,0 15,0 13 7 - - SSE 1009,3 10 0,4
19.07.2019 09:00:00 13,8 12,0 - - 11 6 - - SSE 1009,7 10 0,2
19.07.2019 08:00:00 14,3 11,8 - - 9 5 - - S 1009,7 19 0,0
19.07.2019 07:00:00 13,5 11,2 - - 5 3 - - SE 1009,7 19 0,0
19.07.2019 06:00:00 13,0 10,7 - - 13 7 - - SSE 1009,5 10 0,0
19.07.2019 05:00:00 12,8 10,6 - - 5 3 - - SSE 1009,6 21 0,0
19.07.2019 04:00:00 13,1 10,3 - - 2 1 - - SSE 1009,8 10 0,0
19.07.2019 03:00:00 14,1 10,6 - - 9 5 - - SSE 1009,9 24 0,0
19.07.2019 02:00:00 14,7 10,6 - - 8 4 - - SSE 1010,0 10 0,0
19.07.2019 01:00:00 14,5 10,6 - - 9 5 - - SSE 1010,2 26 0,0
19.07.2019 00:00:00 14,9 10,5 - - 8 4 - - SW 1010,1 10 0,0
18.07.2019 23:00:00 15,7 10,3 - - 9 5 - - SSW 1010,1 10 0,0
18.07.2019 22:00:00 15,6 9,8 - - 5 3 - - WSW 1009,9 10 0,0
18.07.2019 21:00:00 16,8 9,5 - - 9 5 - - W 1009,5 30 0,0
18.07.2019 20:00:00 18,8 9,6 - - 18 10 - - W 1009,0 30 0,0
18.07.2019 19:00:00 19,2 9,4 - - 18 10 - - W 1008,6 10 0,0
18.07.2019 18:00:00 20,7 9,3 - - 28 15 - - W 1008,0 29 0,0
18.07.2019 17:00:00 20,7 10,7 - - 24 13 - - W 1007,9 10 0,0
18.07.2019 16:00:00 19,1 11,5 - - 18 10 - - W 1008,1 10 0,0
18.07.2019 15:00:00 18,9 10,4 - - 26 14 - - W 1008,0 10 0,0
18.07.2019 14:00:00 19,1 10,9 - - 24 13 - - W 1007,9 10 0,0
18.07.2019 13:00:00 18,9 10,9 - - 24 13 - - W 1007,6 10 0,0
18.07.2019 12:00:00 19,6 11,2 - - 18 10 - - W 1007,3 40 0,0
18.07.2019 11:00:00 19,3 11,3 - - 21 11 - - W 1007,1 10 0,0
18.07.2019 10:00:00 17,7 11,4 16,4 14,9 18 10 - - W 1007,1 10 0,0
18.07.2019 09:00:00 16,4 11,4 - - 22 12 - - WSW 1007,2 10 0,0
18.07.2019 08:00:00 14,8 11,7 - - 11 6 - - W 1007,0 10 0,0
18.07.2019 07:00:00 14,6 11,9 - - 21 11 - - WSW 1006,6 22 0,0
18.07.2019 06:00:00 15,1 11,8 - - 18 10 - - W 1006,2 22 0,0
18.07.2019 05:00:00 15,5 14,2 - - 13 7 - - S 1005,8 10 0,0
18.07.2019 04:00:00 15,4 14,3 - - 11 6 - - SE 1006,0 10 0,0
18.07.2019 03:00:00 15,6 14,4 - - 13 7 - - SSE 1006,5 12 0,0
18.07.2019 02:00:00 15,4 14,2 - - 11 6 - - SSE 1007,2 10 0,0
18.07.2019 01:00:00 15,5 13,8 - - 16 9 - - SSE 1007,6 14 0,0
18.07.2019 00:00:00 15,6 13,9 - - 13 7 - - SSE 1008,1 10 0,0
17.07.2019 23:00:00 15,7 14,2 - - 8 4 - - SE 1008,7 10 0,0
17.07.2019 22:00:00 15,9 14,3 - - 9 5 - - S 1009,3 10 0,0
17.07.2019 21:00:00 15,7 14,1 - - 5 3 - - S 1009,4 14 0,6
17.07.2019 20:00:00 15,9 13,4 - - 13 7 - - WSW 1009,9 9 0,8
17.07.2019 19:00:00 18,9 13,4 - - 15 8 - - W 1009,9 11 0,0
17.07.2019 18:00:00 21,6 11,4 - - 16 9 - - SW 1009,6 17 0,0
17.07.2019 17:00:00 22,4 11,2 - - 16 9 - - SW 1010,0 10 0,0
17.07.2019 16:00:00 21,9 11,8 - - 24 13 - - SW 1010,7 10 0,0
17.07.2019 15:00:00 22,5 11,1 - - 21 11 - - SW 1011,0 10 0,0
17.07.2019 14:00:00 22,4 10,7 - - 24 13 - - SW 1011,5 10 0,0
17.07.2019 13:00:00 23,0 11,9 - - 24 13 - - SW 1011,7 10 0,0
17.07.2019 12:00:00 22,2 13,4 - - 18 10 - - S 1012,2 20 0,0
17.07.2019 11:00:00 21,8 13,5 - - 16 9 - - SSW 1012,8 10 0,0
17.07.2019 10:00:00 19,6 12,9 16,2 14,9 8 4 - - S 1013,6 10 0,0
17.07.2019 09:00:00 18,5 12,0 - - 8 4 - - S 1013,9 10 0,0
17.07.2019 08:00:00 15,9 11,6 - - 2 1 - - S 1014,2 14 0,0
17.07.2019 07:00:00 13,6 10,4 - - 4 2 - - S 1014,6 14 0,0
17.07.2019 06:00:00 12,2 9,5 - - 5 3 - - SSE 1014,8 10 0,0
17.07.2019 05:00:00 12,3 9,5 - - 2 1 - - S 1015,1 16 0,0
17.07.2019 04:00:00 11,5 8,7 - - 4 2 - - SSW 1015,3 16 0,0
17.07.2019 03:00:00 12,4 8,8 - - 4 2 - - ENE 1015,8 17 0,0
17.07.2019 02:00:00 13,3 7,8 - - 4 2 - - NNW 1016,3 10 0,0
17.07.2019 01:00:00 14,7 8,4 - - 5 3 - - NW 1016,6 10 0,0
17.07.2019 00:00:00 14,3 8,8 - - 9 5 - - W 1016,8 10 0,0
16.07.2019 23:00:00 16,6 10,3 - - 8 4 - - WSW 1017,0 10 0,0
16.07.2019 22:00:00 17,8 10,8 - - 8 4 - - WSW 1016,8 10 0,0
16.07.2019 21:00:00 19,7 11,1 - - 9 5 - - W 1016,7 10 0,0
16.07.2019 20:00:00 21,8 10,9 - - 15 8 - - W 1016,6 10 0,0
16.07.2019 19:00:00 23,2 11,1 - - 18 10 - - W 1016,6 19 0,0
16.07.2019 18:00:00 24,5 11,2 - - 18 10 - - W 1016,6 10 0,0
16.07.2019 17:00:00 24,7 11,6 - - 16 9 - - W 1016,7 10 0,0
16.07.2019 16:00:00 24,0 12,0 - - 13 7 - - W 1017,1 10 0,0
16.07.2019 15:00:00 23,4 12,7 - - 15 8 - - W 1017,5 10 0,0
16.07.2019 14:00:00 23,0 12,8 - - 11 6 - - WSW 1017,8 35 0,0
16.07.2019 13:00:00 23,2 13,3 - - 13 7 - - WSW 1018,0 10 0,0
16.07.2019 12:00:00 23,3 12,7 - - 18 10 - - W 1018,3 10 0,0
16.07.2019 11:00:00 21,1 14,2 - - 8 4 - - SW 1018,4 25 0,0
16.07.2019 10:00:00 19,7 14,0 16,2 14,7 8 4 - - W 1018,8 25 0,0
16.07.2019 09:00:00 17,1 14,2 - - 2 1 - - NNE 1019,0 10 0,0
16.07.2019 08:00:00 14,8 13,2 - - 4 2 - - ESE 1019,3 10 0,0
16.07.2019 07:00:00 12,6 12,1 - - 0 0 - - N 1019,4 9 0,0
16.07.2019 06:00:00 10,3 9,9 - - 2 1 - - N 1019,3 4,1 0,0
16.07.2019 05:00:00 10,0 9,2 - - 2 1 - - WSW 1019,2 10 0,0
16.07.2019 04:00:00 10,8 10,3 - - 2 1 - - WSW 1019,4 6 0,0
16.07.2019 03:00:00 12,3 11,5 - - 4 2 - - SSE 1019,8 10 0,0
16.07.2019 02:00:00 12,6 11,2 - - 4 2 - - N 1020,3 10 0,0
16.07.2019 01:00:00 13,6 11,7 - - 4 2 - - SE 1020,4 12 0,0

tt = temperature
td = dewpoint
tt -20cm = temperature -20cm
tt -100cm = temperature -100cm
ff = wind speed
fx = gusts
dd = wind direction
ppp = reduced air pressure
vv = visibility
rr = precipitation

Next stations